Flag for Nepal Weather past 2 weeks in Kathmandu, Nepal

Now
70 °F

Passing clouds.


Feels Like: 70 °F
Forecast: 61 / 90 °F
Wind: 3 mph from Southeast

Location: Kathmandu Airport


UV Index: 7 (High)

Visibility: 5 mi


Pressure: 30.09 "Hg

Humidity: 40%

Dew point: 45 °F

Location of KathmanduLocation

Historic Weather in Kathmandu

°F

Kathmandu temperature yesterday

Maximum temperature yesterday: 84 °F (at 12:35 PM)
Minimum temperature yesterday: 57 °F (at 4:35 AM)
Average temperature yesterday: 71 °F

Past Weeks' High & Low Weather Summary

 TemperatureHumidityPressure
High84 °F (Apr 16, 10:35 AM)88% (Apr 6, 11:35 PM)30.21 "Hg (Apr 6, 11:35 PM)
Low48 °F (Apr 15, 4:35 AM)9% (Apr 20, 11:35 AM)29.89 "Hg (Apr 8, 4:35 PM)
Average67 °F47%30.03 "Hg
* Reported Apr 6 8:35 PM — Apr 21 8:35 PM, Kathmandu, Weather by CustomWeather, © 2014

Note: Actual official high and low records may vary slightly from our data, if they occured in-between our weather recording intervals... More about our weather records

Advertising

Historic Weather Conditions — Data for Previous 24 hours

 ConditionsComfort  
Time TempWeatherWind HumidityBarometerVisibility
8:35 PM
Apr 21
72 °FPassing clouds.8 mph33%30.07 "Hg5 mi
7:35 PM72 °FPassing clouds.8 mph33%30.04 "Hg5 mi
6:35 PM75 °FPassing clouds.9 mph31%30.01 "Hg5 mi
5:35 PM79 °FPassing clouds.14 mph23%29.98 "Hg5 mi
4:35 PM82 °FPassing clouds.13 mph20%29.95 "Hg5 mi
3:35 PM82 °FPassing clouds.12 mph20%29.95 "Hg5 mi
2:35 PM84 °FPassing clouds.9 mph20%29.98 "Hg5 mi
1:35 PM84 °FPassing clouds.9 mph16%29.98 "Hg5 mi
12:35 PM84 °FPassing clouds.9 mph18%30.01 "HgN/A
11:35 AM82 °FPassing clouds.6 mph12%30.04 "Hg5 mi
10:35 AM77 °FPassing clouds.3 mph24%30.04 "Hg4 mi
9:35 AM75 °FHaze.3 mph27%30.07 "Hg2 mi
8:35 AM68 °FFog.No wind38%30.07 "Hg2 mi
7:35 AM61 °FFog.No wind55%30.07 "Hg1 mi
6:35 AM55 °FFog.No wind63%30.04 "Hg1 mi
5:35 AM54 °FFog.No wind67%30.01 "Hg2 mi
4:35 AM54 °FPassing clouds.No wind67%30.01 "Hg4 mi
3:35 AM57 °FPassing clouds.No wind59%30.01 "Hg4 mi
2:35 AM57 °FPassing clouds.No wind59%29.98 "Hg4 mi
1:35 AM59 °FPassing clouds.No wind55%30.01 "Hg4 mi
11:35 PM
Apr 20
64 °FPassing clouds.No wind43%30.01 "Hg4 mi
10:35 PM64 °FPassing clouds.No wind49%30.01 "Hg5 mi
9:35 PM66 °FPassing clouds.No wind35%30.01 "Hg5 mi
Weather by CustomWeather, © 2014

See weather overview